#timestamp,LO_Frequency,Hit,StdDev 
1596830415.2,286047004.2,Y
1596830435.0,286047001.4,P
1596830435.9,286047001.4,P
1596830455.8,286047003.0,P
1596830475.6,286047007.2,Y
1596830495.4,286047003.5,P
1596830515.3,286047003.9,P
1596830535.1,286047004.0,P
1596830555.8,286047004.2,Y
1596830575.7,286047000.9,P
1596830595.5,286047001.1,N
1596830615.4,286047000.4,N
1596830635.2,286047002.4,N
1596830655.0,286047002.7,N
1596830655.9,286047002.7,N
1596830675.8,286047002.6,N
1596830695.6,286047002.5,N
1596830715.5,286046999.7,N
1596830735.3,286047001.6,N
1596830755.1,286047003.8,Y
1596830775.9,286047002.3,P
1596830795.7,286047001.8,P
1596830815.5,286047001.5,P
1596830835.4,286047003.7,Y
1596830855.2,286047002.6,P
1596830875.1,286047002.0,P
1596830876.0,286047002.0,P
1596830895.8,286047001.4,Y
1596830915.6,286047001.2,P
1596830935.5,286047002.2,P
1596830955.3,286047001.8,P
1596830975.2,286047004.0,Y
1596830995.9,286047001.5,P
1596831015.7,286047003.7,P
1596831035.6,286047001.4,N
1596831055.4,286047001.3,N
1596831075.2,286047001.3,N
1596831095.1,286047003.1,Y
1596831096.0,286047003.1,P
1596831115.8,286047004.3,P
1596831135.7,286047004.2,P
1596831155.5,286047003.8,Y
1596831175.3,286046999.9,P
1596831195.2,286047002.4,N
1596831215.0,286047001.5,N
1596831215.9,286047001.5,N
1596831235.8,286047004.0,Y
1596831255.6,286047002.6,P
1596831275.4,286047001.6,P
1596831295.3,286047002.5,P
1596831315.1,286047004.3,Y
1596831335.9,286047002.2,P
1596831355.7,286047002.1,P
1596831375.5,286047001.8,P
1596831395.4,286047001.7,Y
1596831415.2,286047002.2,P
1596831435.0,286047001.7,P
1596831436.0,286047001.7,P
1596831455.8,286047001.6,Y
1596831475.6,286047000.6,P
1596831495.5,286047001.5,N
1596831515.3,286047002.7,P
1596831535.1,286047000.5,N
1596831555.9,286047002.0,N
1596831575.7,286047001.8,N
1596831595.6,286047003.8,Y
1596831615.4,286047002.7,P
1596831635.2,286047004.2,P
1596831655.7,286047004.7,P
1596831675.5,286047004.5,Y
1596831695.4,286047001.4,P
1596831715.2,286047001.7,N
1596831735.1,286047001.5,N
1596831736.0,286047001.5,N
1596831755.8,286047001.3,N
1596831775.6,286047004.4,Y
1596831795.5,286047002.4,P
1596831815.3,286047001.8,P
1596831835.2,286047003.9,P
1596831855.9,286047004.1,Y
1596831875.7,286047002.2,P
1596831895.6,286047003.8,P
1596831915.4,286047004.1,P
1596831935.3,286047003.5,Y
1596831955.1,286047000.3,P
1596831975.9,286047000.4,N
1596831995.7,286046999.9,N
1596832015.5,286047002.8,N
1596832035.4,286046999.8,N
1596832055.2,286047001.5,N
1596832075.1,286047004.4,Y
1596832076.0,286047004.4,P
1596832095.8,286047001.9,N
1596832115.6,286047004.4,P
1596832135.5,286047003.6,N
1596832155.3,286047003.3,N
1596832175.2,286047005.8,Y
1596832195.9,286047002.5,P
1596832215.7,286047004.0,P
1596832235.6,286047004.3,P
1596832255.4,286047004.1,Y
1596832275.2,286047000.1,P
1596832295.1,286047000.9,N
1596832296.0,286047000.9,N
1596832315.8,286046999.7,N
1596832335.7,286047002.5,N
1596832355.5,286047001.9,N
1596832375.3,286047003.9,Y
1596832395.2,286047002.6,P
1596832415.0,286047002.1,P
1596832415.9,286047002.1,P
1596832435.8,286047001.4,Y
1596832455.6,286047002.7,P
1596832475.4,286047001.9,P
1596832495.3,286047002.2,P
1596832515.1,286047004.0,Y
1596832535.9,286046999.8,P
1596832555.0,286047000.0,N
1596832555.9,286047000.0,N
1596832575.8,286047001.4,N
1596832595.6,286047001.6,N
1596832615.4,286047004.3,Y
1596832635.3,286047002.8,P
1596832655.1,286047002.8,N
1596832675.9,286046999.7,N
1596832695.7,286047001.5,N
1596832715.5,286047002.3,N
1596832735.4,286047001.6,N
1596832755.2,286047002.2,N
1596832775.0,286047002.1,N
1596832776.0,286047002.1,N
1596832795.8,286047001.6,N
1596832815.6,286047001.7,N
1596832835.5,286047003.2,Y
1596832855.3,286047001.3,P
1596832875.1,286047003.7,P
1596832895.9,286047001.6,N
1596832915.7,286047001.3,N
1596832935.6,286047005.2,Y
1596832955.4,286047005.6,P
1596832975.2,286047002.9,N
1596832995.1,286047005.7,P
1596832996.0,286047005.7,Y
1596833015.8,286047001.6,P
1596833035.7,286047001.4,N
1596833055.5,286047001.6,N
1596833075.3,286047005.4,Y
1596833095.2,286047006.0,P
1596833115.0,286047005.2,N
1596833115.9,286047005.2,P
1596833135.8,286047005.0,Y
1596833155.6,286047002.8,P
1596833175.4,286047000.3,N
1596833195.3,286047000.9,N
1596833215.1,286047000.7,N
1596833235.8,286046998.5,N
1596833255.7,286046996.5,N
1596833275.5,286046999.4,N
1596833295.4,286046998.7,N
1596833315.2,286046998.3,N
1596833335.0,286046998.9,N
1596833335.9,286046998.9,N
1596833355.8,286046999.6,N
1596833375.6,286046999.6,N
1596833395.4,286046999.2,N
1596833415.3,286046998.2,N
1596833435.1,286047000.5,N
1596833455.9,286047000.4,N
1596833475.7,286047000.4,N
1596833495.5,286047001.0,N
1596833515.4,286047001.1,N
1596833535.2,286046998.8,N
1596833555.1,286046999.2,N
1596833556.0,286046999.2,N
1596833575.8,286046994.9,Y
1596833595.6,286046995.2,P
1596833615.5,286046995.7,N
1596833635.3,286046994.7,N
1596833655.2,286046992.4,Y
1596833675.9,286046996.0,P
1596833695.7,286046995.6,P
1596833715.6,286046994.9,P
1596833735.4,286046996.0,Y
1596833755.2,286046998.4,P
1596833775.1,286046998.1,N
1596833776.0,286046998.1,N
1596833795.8,286046999.4,N
1596833815.7,286046999.6,N
1596833835.5,286046997.7,N
1596833855.3,286046995.2,Y
1596833875.2,286046996.8,P
1596833895.0,286046997.6,P
1596833895.9,286046997.6,P
1596833915.8,286046996.6,Y
1596833935.6,286046999.9,P
1596833955.4,286047000.5,N
1596833975.3,286046998.7,N
1596833995.1,286047000.6,N
